Location: *
(43.9900°N, 3.4811°E)
Time: 15:26:12
(UTC+00:00)

Aureole 3 Rocket - Pass Details

Date: 25 August 2019
Orbit: 399 x 1742 km, 82.5° (Epoch: 18 September)

Event Time Altitude Azimuth Distance (km) Brightness Sun altitude
Exits shadow 19:55:16 10° 176° (S) 1,731 5.0 -14.1°
Reaches altitude 10° 19:55:21 10° 176° (S) 1,692 5.0 -14.1°
Maximum altitude 19:58:50 58° 97° (E) 512 2.3 -14.7°
Drops below altitude 10° 20:01:52 10° 17° (NNE) 1,472 5.2 -15.1°
Sets 20:03:47 0° 13° (NNE) 2,322 6.3 -15.4°
